Montgomery, NY

8:13 AM EDT on August 24, 2016 (GMT -0400)
Orange County

Weather History for KMGJ - September, 2013

Change the Weather History Date:

Tuesday, September 17, 2013

  Actual Average (KPOU) Record (KPOU)
Temperature  
Mean Temperature 51 °F 63 °F  
Max Temperature 63 °F 75 °F 93 °F (1991)
Min Temperature 39 °F 51 °F 30 °F (1986)
Degree Days  
Heating Degree Days 14 4  
Month to date heating degree days 42  
Since 1 July heating degree days 59  
Cooling Degree Days 0 2  
Month to date cooling degree days 51  
Year to date cooling degree days 655  
Growing Degree Days 1 (Base 50)    
Moisture  
Dew Point 40 °F    
Average Humidity 69    
Maximum Humidity 93    
Minimum Humidity 41    
Precipitation  
Precipitation 0.00 in 0.15 in 1.05 in (1980)
Month to date precipitation 2.37  
Year to date precipitation 33.15  
Sea Level Pressure  
Sea Level Pressure 30.39 in    
Wind  
Wind Speed 6 mph (NNE)    
Max Wind Speed 15 mph    
Max Gust Speed 21 mph    
Visibility 10 miles    
Events      
T = Trace of Precipitation, MM = Missing Value Source: NWS Daily Summary

Daily Weather History Graph

Daily Weather History Graph

Search for Another Location

Airport or City:

Trip Planner

Search our weather history database for the weather conditions in past years. The results will help you decide how hot, cold, wet, or windy it might be!

Date:

Astronomy

Sep. 17, 2013 Rise Set
Actual Time 6:39 AM EDT 7:02 PM EDT
Civil Twilight 6:11 AM EDT 7:30 PM EDT
Nautical Twilight 5:39 AM EDT 8:02 PM EDT
Astronomical Twilight 5:05 AM EDT 8:36 PM EDT
Moon 5:48 PM EDT (9/17) 4:30 AM EDT (9/17)
Length of Visible Light 13h 18m
Length of Day
12h 22m
Waxing Gibbous, 96% of the Moon is Illuminated
Sep 17
Waxing Gibbous
Sep 19
Full
Sep 26
Last Quarter
Oct 4
New
Oct 11
First Quarter

Hourly Weather History & Observations

Time (EDT) Temp. Windchill Dew Point Humidity Pressure Visibility Wind Dir Wind Speed Gust Speed Precip Events Conditions
12:54 AM 48.0 °F - 39.9 °F 74% 30.31 in 10.0 mi NNE 10.4 mph - N/A   Clear
1:54 AM 48.0 °F - 37.0 °F 66% 30.33 in 10.0 mi NE 11.5 mph - N/A   Partly Cloudy
2:54 AM 45.0 °F 43.5 °F 37.0 °F 74% 30.34 in 10.0 mi North 3.5 mph - N/A   Clear
3:54 AM 43.0 °F - 37.9 °F 82% 30.35 in 10.0 mi Calm Calm - N/A   Clear
4:54 AM 42.1 °F - 37.9 °F 85% 30.36 in 10.0 mi Calm Calm - N/A   Clear
5:54 AM 39.9 °F - 37.0 °F 89% 30.38 in 10.0 mi Calm Calm - N/A   Clear
6:54 AM 39.0 °F 36.8 °F 37.0 °F 93% 30.41 in 10.0 mi North 3.5 mph - N/A   Clear
7:54 AM 46.0 °F 43.1 °F 41.0 °F 83% 30.43 in 10.0 mi NNE 5.8 mph - N/A   Clear
8:54 AM 50.0 °F - 41.0 °F 71% 30.45 in 10.0 mi NNE 10.4 mph - N/A   Clear
9:54 AM 54.0 °F - 39.0 °F 57% 30.47 in 10.0 mi NE 10.4 mph 17.3 mph N/A   Clear
10:25 AM 55.4 °F - 37.4 °F 51% 30.45 in 10.0 mi NNE 15.0 mph 20.7 mph N/A   Partly Cloudy
10:54 AM 55.9 °F - 37.9 °F 51% 30.45 in 10.0 mi NE 12.7 mph - N/A   Clear
11:54 AM 57.9 °F - 39.9 °F 51% 30.45 in 10.0 mi ENE 9.2 mph 17.3 mph N/A   Clear
12:54 PM 60.1 °F - 37.9 °F 44% 30.43 in 10.0 mi ENE 8.1 mph - N/A   Clear
1:54 PM 62.1 °F - 37.9 °F 41% 30.40 in 10.0 mi NNE 5.8 mph 16.1 mph N/A   Clear
2:54 PM 62.1 °F - 37.9 °F 41% 30.39 in 10.0 mi ENE 8.1 mph - N/A   Clear
3:54 PM 63.0 °F - 39.9 °F 43% 30.37 in 10.0 mi NE 4.6 mph - N/A   Clear
4:54 PM 63.0 °F - 39.0 °F 41% 30.36 in 10.0 mi North 6.9 mph - N/A   Clear
5:54 PM 61.0 °F - 39.0 °F 44% 30.36 in 10.0 mi NE 5.8 mph - N/A   Clear
6:54 PM 53.1 °F - 45.0 °F 74% 30.35 in 10.0 mi Calm Calm - N/A   Clear
7:54 PM 48.9 °F - 45.0 °F 86% 30.36 in 10.0 mi NNE 3.5 mph - N/A   Clear
8:54 PM 46.0 °F - 44.1 °F 93% 30.37 in 10.0 mi Calm Calm - N/A   Clear
9:54 PM 45.0 °F - 43.0 °F 93% 30.36 in 10.0 mi Calm Calm - N/A   Clear
10:54 PM 43.0 °F - 41.0 °F 93% 30.36 in 10.0 mi Calm Calm - N/A   Clear
11:54 PM 43.0 °F - 41.0 °F 93% 30.36 in 10.0 mi Calm Calm - N/A   Clear